| time (UTC) | temp C | wind direction | speed KPH | gust KPH | rain 1hr cm | rain 24hr cm | rain mn cm | humidity % | barometer mb |
| 20260504151006 | 13 | 17 | 0.0 | 0.0 | 0.00 | 0.00 | 0.00 | 79 | 1010.4 |
| 20260504150504 | 13 | 20 | 0.0 | 0.0 | 0.00 | 0.00 | 0.00 | 79 | 1010.4 |
| 20260504141011 | 10 | 17 | 0.0 | 0.0 | 0.00 | 0.00 | 0.00 | 90 | 1010.3 |
| 20260504140504 | 10 | 17 | 0.0 | 0.0 | 0.00 | 0.00 | 0.00 | 91 | 1010.3 |
| 20260504130503 | 9 | 17 | 0.0 | 0.0 | 0.00 | 0.00 | 0.00 | 91 | 1009.7 |
| 20260504110503 | 10 | 17 | 0.0 | 0.0 | 0.00 | 0.00 | 0.00 | 89 | 1009.7 |
| 20260504100503 | 10 | 5 | 0.0 | 0.0 | 0.00 | 0.00 | 0.00 | 89 | 1009.5 |
| 20260504081515 | 11 | 5 | 0.0 | 0.0 | 0.00 | 0.00 | 0.00 | 86 | 1009.4 |
| 20260504081004 | 11 | 5 | 0.0 | 0.0 | 0.00 | 0.00 | 0.00 | 86 | 1009.4 |
| 20260504080507 | 11 | 5 | 0.0 | 0.0 | 0.00 | 0.00 | 0.00 | 86 | 1009.4 |
| 20260504050508 | 13 | 24 | 0.0 | 1.6 | 0.00 | 0.00 | 0.00 | 81 | 1009.6 |
| 20260504050015 | 13 | 24 | 0.0 | 1.6 | 0.00 | 0.00 | 0.00 | 81 | 1009.6 |
| 20260504045504 | 13 | 24 | 0.0 | 3.2 | 0.00 | 0.00 | 0.00 | 81 | 1009.7 |
| 20260504045007 | 13 | 24 | 0.0 | 3.2 | 0.00 | 0.00 | 0.00 | 80 | 1009.7 |
| 20260504044516 | 13 | 24 | 0.0 | 1.6 | 0.00 | 0.00 | 0.00 | 79 | 1009.7 |
| 20260504044003 | 13 | 24 | 0.0 | 4.8 | 0.00 | 0.00 | 0.00 | 78 | 1009.7 |
| 20260504043508 | 13 | 47 | 1.6 | 4.8 | 0.00 | 0.00 | 0.00 | 79 | 1009.7 |
| 20260504043019 | 13 | 278 | 0.0 | 3.2 | 0.00 | 0.00 | 0.00 | 78 | 1009.7 |
| 20260504042507 | 14 | 182 | 0.0 | 1.6 | 0.00 | 0.00 | 0.00 | 77 | 1009.7 |
| 20260504042008 | 14 | 182 | 0.0 | 1.6 | 0.00 | 0.00 | 0.00 | 77 | 1009.6 |
| 20260504041516 | 14 | 182 | 0.0 | 1.6 | 0.00 | 0.00 | 0.00 | 76 | 1009.6 |
| 20260504041007 | 14 | 182 | 0.0 | 1.6 | 0.00 | 0.00 | 0.00 | 77 | 1009.6 |
| 20260504040504 | 15 | 182 | 0.0 | 1.6 | 0.00 | 0.00 | 0.00 | 77 | 1009.6 |
| 20260504040017 | 15 | 182 | 0.0 | 1.6 | 0.00 | 0.00 | 0.00 | 77 | 1009.6 |
| 20260504035510 | 15 | 182 | 0.0 | 1.6 | 0.00 | 0.00 | 0.00 | 76 | 1009.6 |
| 20260504035007 | 15 | 182 | 0.0 | 1.6 | 0.00 | 0.00 | 0.00 | 75 | 1009.6 |
| 20260504034516 | 15 | 182 | 0.0 | 1.6 | 0.00 | 0.00 | 0.00 | 74 | 1009.6 |
| 20260504034011 | 15 | 182 | 0.0 | 0.0 | 0.00 | 0.00 | 0.00 | 74 | 1009.6 |
| 20260504033507 | 16 | 182 | 0.0 | 0.0 | 0.00 | 0.00 | 0.00 | 73 | 1009.7 |
| 20260504033016 | 16 | 182 | 0.0 | 1.6 | 0.00 | 0.00 | 0.00 | 71 | 1009.7 |
| 20260504032508 | 16 | 182 | 0.0 | 1.6 | 0.00 | 0.00 | 0.00 | 70 | 1009.7 |
| 20260504032012 | 16 | 182 | 0.0 | 1.6 | 0.00 | 0.00 | 0.00 | 69 | 1009.7 |
| 20260504031518 | 17 | 182 | 0.0 | 1.6 | 0.00 | 0.00 | 0.00 | 68 | 1009.7 |
| 20260504031008 | 17 | 182 | 0.0 | 1.6 | 0.00 | 0.00 | 0.00 | 67 | 1009.7 |
| 20260504030509 | 17 | 182 | 0.0 | 3.2 | 0.00 | 0.00 | 0.00 | 65 | 1009.7 |
| 20260504030015 | 17 | 182 | 0.0 | 3.2 | 0.00 | 0.00 | 0.00 | 65 | 1009.6 |
| 20260504025508 | 18 | 182 | 0.0 | 3.2 | 0.00 | 0.00 | 0.00 | 65 | 1009.7 |
| 20260504025007 | 18 | 182 | 0.0 | 3.2 | 0.00 | 0.00 | 0.00 | 64 | 1009.7 |
| 20260504024522 | 18 | 182 | 0.0 | 3.2 | 0.00 | 0.00 | 0.00 | 64 | 1009.7 |
| 20260504024007 | 18 | 221 | 0.0 | 4.8 | 0.00 | 0.00 | 0.00 | 63 | 1009.7 |
| 20260504023508 | 18 | 221 | 1.6 | 4.8 | 0.00 | 0.00 | 0.00 | 62 | 1009.6 |
| 20260504023022 | 19 | 221 | 1.6 | 6.4 | 0.00 | 0.00 | 0.00 | 60 | 1009.7 |
| 20260504022509 | 19 | 200 | 1.6 | 6.4 | 0.00 | 0.00 | 0.00 | 61 | 1009.6 |
| 20260504022009 | 20 | 169 | 1.6 | 6.4 | 0.00 | 0.00 | 0.00 | 61 | 1009.7 |
| 20260504021522 | 20 | 182 | 0.0 | 6.4 | 0.00 | 0.00 | 0.00 | 59 | 1009.8 |
| 20260504021007 | 20 | 182 | 1.6 | 6.4 | 0.00 | 0.00 | 0.00 | 59 | 1009.8 |
| 20260504020508 | 20 | 204 | 0.0 | 6.4 | 0.00 | 0.00 | 0.00 | 59 | 1009.9 |
| 20260504020016 | 20 | 205 | 1.6 | 4.8 | 0.00 | 0.00 | 0.00 | 58 | 1010.0 |
| 20260504015503 | 20 | 205 | 0.0 | 6.4 | 0.00 | 0.00 | 0.00 | 57 | 1010.1 |
| 20260504015005 | 20 | 205 | 1.6 | 6.4 | 0.00 | 0.00 | 0.00 | 58 | 1010.1 |
| 20260504014504 | 20 | 212 | 1.6 | 8.0 | 0.00 | 0.00 | 0.00 | 58 | 1010.2 |
| 20260504014003 | 20 | 179 | 3.2 | 8.0 | 0.00 | 0.00 | 0.00 | 57 | 1010.2 |
| 20260504013503 | 20 | 244 | 1.6 | 8.0 | 0.00 | 0.00 | 0.00 | 57 | 1010.2 |
| 20260504013009 | 21 | 215 | 1.6 | 8.0 | 0.00 | 0.00 | 0.00 | 56 | 1010.2 |
| 20260504012504 | 21 | 160 | 1.6 | 8.0 | 0.00 | 0.00 | 0.00 | 56 | 1010.3 |
| 20260504012003 | 22 | 182 | 3.2 | 8.0 | 0.00 | 0.00 | 0.00 | 56 | 1010.3 |
| 20260504011508 | 22 | 217 | 1.6 | 9.7 | 0.00 | 0.00 | 0.00 | 54 | 1010.3 |
| 20260504011004 | 22 | 179 | 3.2 | 9.7 | 0.00 | 0.00 | 0.00 | 55 | 1010.3 |
| 20260504010507 | 22 | 219 | 1.6 | 8.0 | 0.00 | 0.00 | 0.00 | 54 | 1010.4 |
| 20260504010004 | 22 | 199 | 0.0 | 6.4 | 0.00 | 0.00 | 0.00 | 55 | 1010.4 |
| 20260504005504 | 22 | 212 | 1.6 | 6.4 | 0.00 | 0.00 | 0.00 | 54 | 1010.5 |
| 20260504005004 | 22 | 198 | 1.6 | 6.4 | 0.00 | 0.00 | 0.00 | 57 | 1010.6 |
| 20260504004502 | 22 | 161 | 0.0 | 9.7 | 0.00 | 0.00 | 0.00 | 56 | 1010.6 |
| 20260504004003 | 22 | 182 | 3.2 | 12.9 | 0.00 | 0.00 | 0.00 | 59 | 1010.7 |
| 20260504003503 | 22 | 194 | 4.8 | 12.9 | 0.00 | 0.00 | 0.00 | 55 | 1010.7 |
| 20260504003010 | 21 | 169 | 4.8 | 9.7 | 0.00 | 0.00 | 0.00 | 60 | 1010.7 |
| 20260504002504 | 22 | 150 | 4.8 | 11.3 | 0.00 | 0.00 | 0.00 | 59 | 1010.7 |
| 20260504002004 | 22 | 140 | 3.2 | 11.3 | 0.00 | 0.00 | 0.00 | 57 | 1010.7 |
| 20260504001515 | 23 | 192 | 1.6 | 6.4 | 0.00 | 0.00 | 0.00 | 55 | 1010.8 |
| 20260504001008 | 23 | 144 | 1.6 | 11.3 | 0.00 | 0.00 | 0.00 | 55 | 1010.8 |
| 20260504000503 | 23 | 112 | 4.8 | 11.3 | 0.00 | 0.00 | 0.00 | 57 | 1010.8 |
| 20260504000042 | 22 | 101 | 3.2 | 11.3 | 0.00 | 0.00 | 0.00 | 60 | 1010.8 |
| 20260503235502 | 22 | 124 | 8.0 | 11.3 | 0.00 | 0.00 | 0.00 | 57 | 1011.0 |
| 20260503235002 | 23 | 116 | 4.8 | 14.5 | 0.00 | 0.00 | 0.00 | 56 | 1011.0 |
| 20260503234503 | 22 | 204 | 3.2 | 14.5 | 0.00 | 0.00 | 0.00 | 56 | 1011.1 |
| 20260503234003 | 23 | 109 | 9.7 | 14.5 | 0.00 | 0.00 | 0.00 | 57 | 1011.1 |
| 20260503233502 | 23 | 123 | 6.4 | 12.9 | 0.00 | 0.00 | 0.00 | 58 | 1011.2 |
| 20260503233008 | 24 | 136 | 3.2 | 11.3 | 0.00 | 0.00 | 0.00 | 52 | 1011.1 |
| 20260503232504 | 25 | 236 | 3.2 | 12.9 | 0.00 | 0.00 | 0.00 | 46 | 1011.2 |
| 20260503232007 | 25 | 302 | 1.6 | 12.9 | 0.00 | 0.00 | 0.00 | 49 | 1011.2 |
| 20260503231503 | 25 | 321 | 3.2 | 12.9 | 0.00 | 0.00 | 0.00 | 46 | 1011.4 |
| 20260503231004 | 24 | 282 | 6.4 | 12.9 | 0.00 | 0.00 | 0.00 | 46 | 1011.4 |
| 20260503230507 | 24 | 307 | 6.4 | 12.9 | 0.00 | 0.00 | 0.00 | 48 | 1011.5 |
| 20260503230015 | 25 | 251 | 3.2 | 12.9 | 0.00 | 0.00 | 0.00 | 48 | 1011.5 |
| 20260503225504 | 25 | 157 | 3.2 | 12.9 | 0.00 | 0.00 | 0.00 | 48 | 1011.5 |
| 20260503225004 | 25 | 275 | 0.0 | 12.9 | 0.00 | 0.00 | 0.00 | 47 | 1011.6 |
| 20260503224508 | 25 | 313 | 3.2 | 12.9 | 0.00 | 0.00 | 0.00 | 44 | 1011.8 |
| 20260503224004 | 24 | 280 | 6.4 | 11.3 | 0.00 | 0.00 | 0.00 | 45 | 1011.7 |
| 20260503223502 | 25 | 273 | 4.8 | 11.3 | 0.00 | 0.00 | 0.00 | 46 | 1011.8 |
| 20260503223012 | 24 | 225 | 4.8 | 12.9 | 0.00 | 0.00 | 0.00 | 42 | 1011.9 |
| 20260503222503 | 24 | 299 | 6.4 | 12.9 | 0.00 | 0.00 | 0.00 | 47 | 1012.0 |
| 20260503222003 | 24 | 203 | 3.2 | 12.9 | 0.00 | 0.00 | 0.00 | 46 | 1012.0 |
| 20260503221514 | 24 | 276 | 6.4 | 12.9 | 0.00 | 0.00 | 0.00 | 45 | 1012.0 |
| 20260503221003 | 24 | 256 | 1.6 | 12.9 | 0.00 | 0.00 | 0.00 | 47 | 1012.0 |
| 20260503220504 | 24 | 298 | 3.2 | 14.5 | 0.00 | 0.00 | 0.00 | 44 | 1012.1 |
| 20260503220011 | 23 | 253 | 6.4 | 14.5 | 0.00 | 0.00 | 0.00 | 45 | 1012.2 |
| 20260503215502 | 23 | 274 | 4.8 | 12.9 | 0.00 | 0.00 | 0.00 | 47 | 1012.3 |
| 20260503215003 | 23 | 284 | 6.4 | 16.1 | 0.00 | 0.00 | 0.00 | 47 | 1012.4 |
| 20260503214507 | 23 | 309 | 8.0 | 16.1 | 0.00 | 0.00 | 0.00 | 45 | 1012.5 |
| 20260503214008 | 23 | 319 | 4.8 | 16.1 | 0.00 | 0.00 | 0.00 | 48 | 1012.4 |
| 20260503213504 | 23 | 261 | 4.8 | 16.1 | 0.00 | 0.00 | 0.00 | 45 | 1012.5 |
| 20260503213015 | 23 | 193 | 8.0 | 16.1 | 0.00 | 0.00 | 0.00 | 45 | 1012.5 |
| 20260503212504 | 23 | 266 | 6.4 | 16.1 | 0.00 | 0.00 | 0.00 | 48 | 1012.5 |
| 20260503212008 | 23 | 247 | 8.0 | 19.3 | 0.00 | 0.00 | 0.00 | 46 | 1012.6 |
| 20260503211516 | 23 | 271 | 4.8 | 19.3 | 0.00 | 0.00 | 0.00 | 45 | 1012.6 |
| 20260503211003 | 23 | 238 | 4.8 | 12.9 | 0.00 | 0.00 | 0.00 | 48 | 1012.6 |
| 20260503210511 | 23 | 280 | 3.2 | 12.9 | 0.00 | 0.00 | 0.00 | 48 | 1012.7 |
| 20260503210004 | 23 | 230 | 4.8 | 14.5 | 0.00 | 0.00 | 0.00 | 44 | 1012.8 |
| 20260503205506 | 23 | 265 | 8.0 | 16.1 | 0.00 | 0.00 | 0.00 | 42 | 1012.8 |
| 20260503205007 | 23 | 257 | 4.8 | 16.1 | 0.00 | 0.00 | 0.00 | 47 | 1012.8 |
| 20260503204511 | 23 | 300 | 6.4 | 17.7 | 0.00 | 0.00 | 0.00 | 43 | 1012.9 |
| 20260503204005 | 23 | 298 | 3.2 | 17.7 | 0.00 | 0.00 | 0.00 | 45 | 1013.1 |
| 20260503203504 | 22 | 287 | 8.0 | 16.1 | 0.00 | 0.00 | 0.00 | 43 | 1013.2 |
| 20260503203025 | 22 | 288 | 8.0 | 17.7 | 0.00 | 0.00 | 0.00 | 45 | 1013.3 |
| 20260503202504 | 22 | 274 | 6.4 | 17.7 | 0.00 | 0.00 | 0.00 | 46 | 1013.4 |
| 20260503202009 | 22 | 272 | 6.4 | 12.9 | 0.00 | 0.00 | 0.00 | 45 | 1013.5 |
| 20260503201511 | 22 | 306 | 4.8 | 17.7 | 0.00 | 0.00 | 0.00 | 49 | 1013.6 |
| 20260503201007 | 22 | 267 | 8.0 | 17.7 | 0.00 | 0.00 | 0.00 | 49 | 1013.6 |
| 20260503200509 | 22 | 271 | 8.0 | 19.3 | 0.00 | 0.00 | 0.00 | 50 | 1013.6 |
| 20260503200008 | 22 | 336 | 8.0 | 19.3 | 0.00 | 0.00 | 0.00 | 49 | 1013.7 |
| 20260503195503 | 21 | 305 | 8.0 | 17.7 | 0.00 | 0.00 | 0.00 | 54 | 1013.7 |
| 20260503195005 | 21 | 318 | 9.7 | 17.7 | 0.00 | 0.00 | 0.00 | 53 | 1013.6 |
| 20260503194515 | 21 | 296 | 8.0 | 20.9 | 0.00 | 0.00 | 0.00 | 55 | 1013.7 |
| 20260503194005 | 21 | 269 | 9.7 | 20.9 | 0.00 | 0.00 | 0.00 | 56 | 1013.6 |
| 20260503193510 | 21 | 248 | 4.8 | 17.7 | 0.00 | 0.00 | 0.00 | 57 | 1013.6 |
| 20260503193018 | 21 | 258 | 9.7 | 17.7 | 0.00 | 0.00 | 0.00 | 54 | 1013.6 |
| 20260503192503 | 22 | 246 | 4.8 | 12.9 | 0.00 | 0.00 | 0.00 | 59 | 1013.6 |
| 20260503192007 | 22 | 263 | 4.8 | 16.1 | 0.00 | 0.00 | 0.00 | 60 | 1013.6 |
| 20260503191515 | 21 | 325 | 3.2 | 16.1 | 0.00 | 0.00 | 0.00 | 60 | 1013.5 |
| 20260503191008 | 21 | 258 | 6.4 | 16.1 | 0.00 | 0.00 | 0.00 | 58 | 1013.5 |
| 20260503190507 | 21 | 289 | 8.0 | 16.1 | 0.00 | 0.00 | 0.00 | 56 | 1013.6 |
| 20260503190009 | 22 | 186 | 1.6 | 14.5 | 0.00 | 0.00 | 0.00 | 55 | 1013.5 |
| 20260503185507 | 22 | 94 | 4.8 | 11.3 | 0.00 | 0.00 | 0.00 | 59 | 1013.6 |
| 20260503185003 | 22 | 248 | 4.8 | 16.1 | 0.00 | 0.00 | 0.00 | 56 | 1013.7 |
| 20260503184513 | 21 | 170 | 4.8 | 16.1 | 0.00 | 0.00 | 0.00 | 61 | 1013.8 |
| 20260503184007 | 22 | 192 | 4.8 | 14.5 | 0.00 | 0.00 | 0.00 | 60 | 1014.0 |
| 20260503183507 | 21 | 208 | 3.2 | 14.5 | 0.00 | 0.00 | 0.00 | 62 | 1014.0 |
| 20260503183012 | 21 | 190 | 4.8 | 11.3 | 0.00 | 0.00 | 0.00 | 60 | 1014.0 |
| 20260503182508 | 21 | 181 | 1.6 | 9.7 | 0.00 | 0.00 | 0.00 | 62 | 1014.1 |
| 20260503182010 | 21 | 172 | 3.2 | 9.7 | 0.00 | 0.00 | 0.00 | 60 | 1014.1 |
| 20260503181517 | 21 | 157 | 3.2 | 9.7 | 0.00 | 0.00 | 0.00 | 62 | 1014.2 |
| 20260503181007 | 20 | 226 | 3.2 | 12.9 | 0.00 | 0.00 | 0.00 | 63 | 1014.3 |
| 20260503180508 | 20 | 123 | 3.2 | 12.9 | 0.00 | 0.00 | 0.00 | 67 | 1014.3 |
| 20260503180022 | 20 | 202 | 3.2 | 11.3 | 0.00 | 0.00 | 0.00 | 70 | 1014.4 |
| 20260503175504 | 20 | 122 | 3.2 | 11.3 | 0.00 | 0.00 | 0.00 | 65 | 1014.5 |
| 20260503175007 | 20 | 190 | 3.2 | 8.0 | 0.00 | 0.00 | 0.00 | 65 | 1014.6 |
| 20260503174518 | 20 | 143 | 3.2 | 9.7 | 0.00 | 0.00 | 0.00 | 65 | 1014.5 |
| 20260503174010 | 20 | 182 | 1.6 | 9.7 | 0.00 | 0.00 | 0.00 | 64 | 1014.6 |
| 20260503173503 | 20 | 227 | 1.6 | 8.0 | 0.00 | 0.00 | 0.00 | 63 | 1014.7 |
| 20260503173033 | 20 | 188 | 1.6 | 8.0 | 0.00 | 0.00 | 0.00 | 64 | 1014.6 |
| 20260503172507 | 20 | 213 | 0.0 | 8.0 | 0.00 | 0.00 | 0.00 | 57 | 1014.7 |
| 20260503172004 | 20 | 338 | 3.2 | 9.7 | 0.00 | 0.00 | 0.00 | 56 | 1014.7 |
| 20260503171516 | 20 | 348 | 1.6 | 9.7 | 0.00 | 0.00 | 0.00 | 55 | 1014.7 |
| 20260503171006 | 20 | 338 | 0.0 | 6.4 | 0.00 | 0.00 | 0.00 | 56 | 1014.8 |
| 20260503170506 | 19 | 169 | 0.0 | 6.4 | 0.00 | 0.00 | 0.00 | 56 | 1014.9 |